カタログに戻る

SL-12 R/B(2)

運用中GEO
NORAD 14193·ROCKET BODY·🇷🇺 Russia

打ち上げ Jul 15, 1980 から Baikonur Cosmodrome

Loading…

TLE

最新Source: Space-Track

元期: Sep 14, 2026, 14:16 UTC

1 14193U 80060F   26257.59494777 -.00000289  00000-0  00000-0 0  9996
2 14193   4.8937 282.3885 0018802 301.3137  84.0720  1.01609702 48913

AllMySatでSL-12 R/B(2)をリアルタイム追跡

Download on the App Store